Gambell, AK

3:47 PM AKST on December 16, 2017 (GMT -0900)
Gambell

Weather History for PAGM - February, 2013

Change the Weather History Date:

Sunday, February 10, 2013

  Actual Average Record
Temperature  
Mean Temperature -3 °F -  
Max Temperature 1 °F 10 °F 33 °F (2000)
Min Temperature -7 °F 3 °F -14 °F (2002)
Degree Days  
Heating Degree Days 68    
Moisture  
Dew Point -8 °F    
Average Humidity 79    
Maximum Humidity 100    
Minimum Humidity 34    
Precipitation  
Precipitation 0.00 in - - ()
Sea Level Pressure  
Sea Level Pressure 29.09 in    
Wind  
Wind Speed 22 mph (NNE)    
Max Wind Speed 29 mph    
Max Gust Speed 36 mph    
Visibility 2 miles    
Events      
Averages and records for this station are not official NWS values.
T = Trace of Precipitation, MM = Missing Value Source: NWS Daily Summary

Daily Weather History Graph

Daily Weather History Graph

Search for Another Location

Airport or City:

Trip Planner

Search our weather history database for the weather conditions in past years. The results will help you decide how hot, cold, wet, or windy it might be!

Date:

Astronomy

Feb. 10, 2013 Rise Set
Actual Time 10:34 AM AKST 6:48 PM AKST
Civil Twilight 9:42 AM AKST 7:40 PM AKST
Nautical Twilight 8:47 AM AKST 8:36 PM AKST
Astronomical Twilight 7:52 AM AKST 9:31 PM AKST
Moon 10:00 AM AKST (2/10) 8:36 PM AKST (2/10)
Length of Visible Light 9h 57m
Length of Day
8h 13m
New Moon, 0% of the Moon is Illuminated
Feb 10
New Moon
Feb 17
First Quarter
Feb 25
Full
Mar 4
Last Quarter
Mar 11
New

Hourly Weather History & Observations

Time (AKST) Temp. Windchill Dew Point Humidity Pressure Visibility Wind Dir Wind Speed Gust Speed Precip Events Conditions
12:16 AM -7.6 °F -33.9 °F -11.2 °F 84% 29.12 in 1.0 mi North 24.2 mph - N/A   Overcast
12:36 AM -7.6 °F -32.9 °F -18.4 °F 59% 29.11 in 1.0 mi North 21.9 mph - N/A   Overcast
12:56 AM -7.6 °F -34.8 °F -25.6 °F 41% 29.10 in 0.8 mi North 26.5 mph 33.4 mph N/A   Overcast
1:16 AM -7.6 °F -34.4 °F -7.6 °F 100% 29.10 in 1.0 mi North 25.3 mph - N/A   Overcast
1:36 AM -7.6 °F -34.8 °F - N/A% 29.09 in 1.0 mi North 26.5 mph - N/A   Overcast
1:56 AM -7.6 °F -34.4 °F - N/A% 29.09 in 0.8 mi North 25.3 mph 32.2 mph N/A   Overcast
2:16 AM -7.6 °F -32.9 °F -29.2 °F 34% 29.09 in 0.8 mi North 21.9 mph - N/A   Overcast
2:36 AM -5.8 °F -32.0 °F -20.2 °F 50% 29.08 in 0.8 mi NNE 25.3 mph 32.2 mph N/A   Overcast
2:56 AM -5.8 °F -30.5 °F -16.6 °F 60% 29.08 in 1.2 mi North 21.9 mph 27.6 mph N/A   Overcast
3:16 AM -5.8 °F -32.9 °F -14.8 °F 65% 29.07 in 0.8 mi North 27.6 mph - N/A   Overcast
3:36 AM -5.8 °F -33.3 °F -13.0 °F 71% 29.06 in 0.8 mi North 28.8 mph 32.2 mph N/A   Overcast
3:56 AM -5.8 °F -33.3 °F -16.6 °F 60% 29.06 in 0.5 mi North 28.8 mph 35.7 mph N/A   Overcast
4:16 AM -5.8 °F -32.4 °F -11.2 °F 77% 29.05 in 0.8 mi North 26.5 mph 34.5 mph N/A   Overcast
4:36 AM -5.8 °F -32.9 °F -11.2 °F 77% 29.05 in 0.8 mi North 27.6 mph 31.1 mph N/A   Overcast
4:56 AM -5.8 °F -32.9 °F -23.8 °F 42% 29.04 in 1.0 mi North 27.6 mph 32.2 mph N/A   Overcast
5:16 AM -5.8 °F -30.5 °F - N/A% 29.04 in 0.8 mi North 21.9 mph - N/A   Overcast
5:36 AM -5.8 °F -32.0 °F - N/A% 29.03 in 0.8 mi North 25.3 mph - N/A   Overcast
5:56 AM -5.8 °F -31.5 °F -22.0 °F 46% 29.03 in 0.8 mi North 24.2 mph - N/A   Overcast
6:16 AM -4.0 °F -27.0 °F -18.4 °F 50% 29.03 in 0.8 mi North 19.6 mph - N/A   Overcast
6:36 AM -4.0 °F -30.0 °F -18.4 °F 50% 29.03 in 1.0 mi North 26.5 mph - N/A   Overcast
6:56 AM -4.0 °F -30.0 °F -11.2 °F 71% 29.03 in 1.0 mi NNE 26.5 mph 29.9 mph N/A   Overcast
7:16 AM -4.0 °F -28.1 °F -11.2 °F 71% 29.03 in 1.0 mi North 21.9 mph - N/A   Overcast
7:36 AM -4.0 °F -29.1 °F -16.6 °F 55% 29.03 in 0.8 mi North 24.2 mph 27.6 mph N/A   Overcast
7:56 AM -4.0 °F -27.0 °F -18.4 °F 50% 29.03 in 1.0 mi North 19.6 mph - N/A   Overcast
8:16 AM -4.0 °F - - N/A% 29.03 in 1.0 mi North - - N/A   Overcast
8:36 AM -2.2 °F -25.7 °F -4.0 °F 92% 29.04 in 1.0 mi North 21.9 mph 26.5 mph N/A   Overcast
8:56 AM -2.2 °F -26.2 °F -11.2 °F 66% 29.03 in 1.0 mi North 23.0 mph 27.6 mph N/A   Overcast
9:16 AM -2.2 °F -25.7 °F -4.0 °F 92% 29.03 in 1.2 mi North 21.9 mph - N/A   Overcast
9:36 AM -2.2 °F -25.7 °F -7.6 °F 78% 29.03 in 1.2 mi North 21.9 mph - N/A   Overcast
9:56 AM -2.2 °F -26.7 °F -7.6 °F 78% 29.03 in 1.0 mi North 24.2 mph - N/A   Overcast
10:16 AM -2.2 °F -25.7 °F -5.8 °F 85% 29.03 in 1.2 mi North 21.9 mph - N/A   Overcast
10:36 AM -2.2 °F -25.7 °F -7.6 °F 78% 29.03 in 0.8 mi North 21.9 mph - N/A   Overcast
10:56 AM -2.2 °F -25.7 °F -5.8 °F 85% 29.04 in 1.2 mi North 21.9 mph 26.5 mph N/A   Overcast
11:16 AM -2.2 °F -26.7 °F -5.8 °F 85% 29.04 in 1.8 mi NNE 24.2 mph - N/A   Overcast
11:36 AM -2.2 °F -26.7 °F -5.8 °F 85% 29.04 in 1.5 mi NNE 24.2 mph - N/A   Overcast
11:56 AM -2.2 °F -26.2 °F -5.8 °F 85% 29.04 in 1.5 mi NNE 23.0 mph - N/A   Overcast
12:16 PM -2.2 °F -26.2 °F -5.8 °F 85% 29.05 in 1.0 mi North 23.0 mph - N/A   Overcast
12:36 PM -2.2 °F -24.1 °F -5.8 °F 85% 29.05 in 1.8 mi NNE 18.4 mph 26.5 mph N/A   Overcast
12:56 PM -2.2 °F -25.2 °F -5.8 °F 85% 29.05 in 2.0 mi NNE 20.7 mph - N/A   Overcast
1:16 PM -0.4 °F -22.8 °F -4.0 °F 85% 29.06 in 2.5 mi NNE 20.7 mph - N/A   Overcast
1:36 PM -0.4 °F -22.3 °F -5.8 °F 78% 29.06 in 1.2 mi NNE 19.6 mph 25.3 mph N/A   Overcast
1:56 PM -0.4 °F -23.8 °F -2.2 °F 92% 29.06 in 1.0 mi NNE 23.0 mph - N/A   Overcast
2:16 PM -0.4 °F -23.8 °F -4.0 °F 85% 29.06 in 1.0 mi NNE 23.0 mph - N/A   Overcast
2:36 PM -0.4 °F -23.8 °F -4.0 °F 85% 29.06 in 1.0 mi NNE 23.0 mph - N/A   Overcast
2:56 PM -0.4 °F -24.3 °F -2.2 °F 92% 29.06 in 1.0 mi NNE 24.2 mph - N/A   Overcast
3:16 PM -0.4 °F -21.7 °F -5.8 °F 78% 29.08 in 1.0 mi NNE 18.4 mph 25.3 mph N/A   Overcast
3:36 PM -0.4 °F -20.5 °F -4.0 °F 85% 29.09 in 1.2 mi NNE 16.1 mph 23.0 mph N/A   Overcast
3:56 PM -0.4 °F -19.2 °F -4.0 °F 85% 29.10 in 1.8 mi NNE 13.8 mph - N/A   Overcast
4:16 PM -0.4 °F -19.9 °F -2.2 °F 92% 29.10 in 1.0 mi NNE 15.0 mph - N/A   Overcast
4:36 PM -0.4 °F -19.2 °F -4.0 °F 85% 29.11 in 1.0 mi NNE 13.8 mph - N/A   Overcast
4:56 PM -0.4 °F -18.4 °F -4.0 °F 85% 29.11 in 2.0 mi NNE 12.7 mph - N/A   Overcast
5:16 PM -0.4 °F -20.5 °F -4.0 °F 85% 29.11 in 5.0 mi NNE 16.1 mph - N/A   Overcast
5:36 PM -0.4 °F -19.2 °F -2.2 °F 92% 29.12 in 4.0 mi NNE 13.8 mph - N/A   Overcast
5:56 PM -0.4 °F -17.6 °F -4.0 °F 85% 29.13 in 2.5 mi NNE 11.5 mph - N/A   Overcast
6:16 PM -0.4 °F -18.4 °F -2.2 °F 92% 29.13 in 1.5 mi NNE 12.7 mph - N/A   Overcast
6:36 PM -0.4 °F -19.2 °F -2.2 °F 92% 29.13 in 3.0 mi NNE 13.8 mph - N/A   Overcast
6:56 PM -0.4 °F -19.9 °F -2.2 °F 92% 29.14 in 3.0 mi NNE 15.0 mph - N/A   Overcast
7:16 PM -0.4 °F -20.5 °F -2.2 °F 92% 29.14 in 3.0 mi NNE 16.1 mph - N/A   Overcast
7:36 PM -0.4 °F -21.2 °F -2.2 °F 92% 29.14 in 1.5 mi NE 17.3 mph - N/A   Overcast
7:56 PM -0.4 °F -19.9 °F -2.2 °F 92% 29.15 in 1.8 mi NE 15.0 mph - N/A   Overcast
8:16 PM -0.4 °F -19.9 °F -2.2 °F 92% 29.15 in 4.0 mi NE 15.0 mph - N/A   Overcast
8:36 PM -0.4 °F -18.4 °F -2.2 °F 92% 29.16 in 3.0 mi NE 12.7 mph - N/A   Overcast
8:56 PM 1.4 °F -16.9 °F -2.2 °F 85% 29.16 in 1.8 mi NE 13.8 mph - N/A   Overcast
9:16 PM 1.4 °F -17.6 °F -2.2 °F 85% 29.17 in 9.0 mi NE 15.0 mph - N/A   Overcast
9:36 PM 1.4 °F -18.8 °F -2.2 °F 85% 29.17 in 1.8 mi NE 17.3 mph - N/A   Overcast
9:56 PM 1.4 °F -18.8 °F -2.2 °F 85% 29.18 in 1.8 mi NE 17.3 mph - N/A   Overcast
10:16 PM 1.4 °F -19.4 °F -2.2 °F 85% 29.18 in 2.0 mi ENE 18.4 mph - N/A   Overcast
10:36 PM -0.4 °F -21.7 °F -2.2 °F 92% 29.19 in 3.0 mi ENE 18.4 mph - N/A   Overcast
10:56 PM -0.4 °F -20.5 °F -2.2 °F 92% 29.20 in 3.0 mi ENE 16.1 mph - N/A   Overcast
11:16 PM -0.4 °F -19.9 °F -4.0 °F 85% 29.21 in 5.0 mi NE 15.0 mph - N/A   Overcast
11:36 PM -0.4 °F -19.2 °F -2.2 °F 92% 29.22 in 3.0 mi ENE 13.8 mph - N/A   Overcast
11:56 PM -0.4 °F -18.4 °F -4.0 °F 85% 29.23 in 3.0 mi ENE 12.7 mph - N/A   Overcast